EW2360 Weather Reports


time (UTC)temp
C
wind
direction
speed
KPH
gust
KPH
rain 1hr
cm
rain 24hr
cm
rain mn
cm
humidity
%
barometer
mb
20260503053343 21 231 0.0 0.0 0.00 1.78 0.00 100 1012.0
20260503052335 21 231 0.0 0.0 0.00 1.78 0.00 100 1012.4
20260503051352 21 208 0.0 0.0 0.00 1.78 0.00 100 1012.6
20260503050327 21 208 0.0 0.0 0.00 1.78 0.00 100 1012.7
20260503045342 21 208 0.0 0.0 0.00 1.78 0.00 100 1012.6
20260503044335 21 208 0.0 0.0 0.00 1.78 0.00 100 1012.7
20260503043347 21 208 0.0 0.0 0.00 1.78 0.00 100 1012.7
20260503042332 21 208 0.0 0.0 0.00 1.78 0.00 100 1012.8
20260503041344 21 208 0.0 0.0 0.00 1.78 0.00 100 1012.6
20260503040328 21 208 0.0 1.6 0.00 1.78 0.00 100 1012.4
20260503035339 21 208 0.0 0.0 0.00 1.78 1.78 100 1012.3
20260503034347 21 208 0.0 0.0 0.00 1.78 1.78 100 1012.1
20260503033341 21 208 0.0 0.0 0.00 1.78 1.78 100 1011.9
20260503032357 21 208 0.0 0.0 0.03 1.78 1.78 100 1011.9
20260503031352 21 224 0.0 0.0 0.03 1.78 1.78 100 1011.6
20260503030326 21 224 0.0 0.0 0.03 1.78 1.78 100 1011.1
20260503025400 21 222 0.0 0.0 0.03 1.78 1.78 100 1011.1
20260503024328 21 195 0.0 1.6 0.03 1.78 1.78 100 1011.3
20260503023344 21 207 0.0 0.0 0.03 1.78 1.78 100 1011.0
20260503022328 21 207 0.0 0.0 0.00 1.75 1.75 100 1011.6
20260503021402 21 207 0.0 1.6 0.00 1.75 1.75 100 1011.6
20260503020328 21 195 0.0 3.2 0.00 1.75 1.75 100 1011.4
20260503015343 21 248 1.6 4.8 0.00 1.75 1.75 100 1011.4
20260503014358 21 169 1.6 4.8 0.05 1.75 1.75 100 1010.9
20260503013352 21 215 0.0 1.6 0.05 1.75 1.75 100 1010.6
20260503012338 21 139 0.0 3.2 0.05 1.75 1.75 100 1010.0
20260503011325 21 162 1.6 6.4 0.05 1.75 1.75 100 1010.2
20260503010337 21 134 1.6 11.3 0.05 1.75 1.75 100 1010.2
20260503005324 21 167 1.6 8.0 0.05 1.75 1.75 100 1010.4
20260503004341 21 119 4.8 9.7 0.00 1.70 1.70 100 1009.9
20260503003328 21 160 3.2 6.4 0.00 1.70 1.70 100 1010.0
20260503002343 21 123 1.6 6.4 0.00 1.70 1.70 100 1009.5
20260503001331 21 151 3.2 8.0 0.00 1.70 1.70 100 1009.7
20260503000329 21 117 1.6 4.8 0.00 1.70 1.70 100 1009.7
20260502235405 21 193 0.0 4.8 0.00 1.70 1.70 100 1009.9
20260502234341 21 207 1.6 9.7 0.00 1.70 1.70 100 1010.2
20260502233334 21 187 3.2 8.0 0.00 1.70 1.70 100 1010.3
20260502232328 21 127 1.6 3.2 0.00 1.70 1.70 100 1010.1
20260502231344 21 224 0.0 1.6 0.00 1.70 1.70 100 1009.9
20260502230332 21 224 1.6 4.8 0.36 1.70 1.70 100 1010.6
20260502225347 21 245 0.0 3.2 1.27 1.70 1.70 100 1010.0
20260502224334 21 233 0.0 3.2 1.65 1.70 1.70 100 1010.2
20260502223328 21 333 1.6 4.8 1.68 1.70 1.70 100 1009.9
20260502222344 21 86 0.0 0.0 1.68 1.70 1.70 99 1009.8
20260502221332 21 83 0.0 8.0 1.65 1.68 1.68 99 1009.7
20260502220347 21 330 11.3 22.5 1.37 1.40 1.40 97 1010.1
20260502215423 22 309 14.5 29.0 0.25 0.28 0.28 95 1011.0
20260502214347 25 293 19.3 35.4 0.03 0.05 0.05 84 1010.6
20260502213333 28 205 8.0 12.9 0.00 0.03 0.03 77 1009.2
20260502212329 28 245 4.8 9.7 0.00 0.03 0.03 75 1009.2
20260502211324 28 212 3.2 11.3 0.00 0.03 0.03 73 1008.9
20260502210359 29 249 6.4 12.9 0.00 0.03 0.03 72 1008.8
20260502205334 29 247 3.2 9.7 0.00 0.03 0.03 72 1008.6
20260502204406 29 197 4.8 14.5 0.00 0.03 0.03 71 1008.4
20260502203330 30 238 8.0 14.5 0.00 0.03 0.03 69 1008.7
20260502202324 30 255 4.8 20.9 0.00 0.03 0.03 69 1008.7
20260502201338 30 230 9.7 20.9 0.00 0.03 0.03 67 1008.6
20260502200335 30 245 8.0 17.7 0.00 0.03 0.03 66 1008.5
20260502195349 31 241 9.7 20.9 0.00 0.03 0.03 66 1008.6
20260502194343 31 255 12.9 20.9 0.00 0.03 0.03 66 1008.6
20260502193339 31 197 8.0 19.3 0.00 0.03 0.03 66 1008.5
20260502192334 31 159 8.0 17.7 0.00 0.03 0.03 65 1008.6
20260502191329 31 211 11.3 27.4 0.00 0.03 0.03 67 1008.7
20260502190341 31 267 14.5 27.4 0.00 0.03 0.03 67 1008.8
20260502185335 31 294 12.9 29.0 0.00 0.03 0.03 65 1009.0
20260502184331 31 204 14.5 29.0 0.00 0.03 0.03 67 1008.9
20260502183347 32 212 6.4 24.1 0.00 0.03 0.03 67 1009.1
20260502182341 32 196 12.9 25.7 0.00 0.03 0.03 67 1009.3
20260502181329 32 250 17.7 32.2 0.00 0.03 0.03 64 1009.4
20260502180325 31 249 14.5 29.0 0.00 0.03 0.03 68 1009.4
20260502170352 31 243 9.7 29.0 0.00 0.03 0.03 68 1009.6
20260502164340 31 231 16.1 29.0 0.00 0.03 0.03 68 1009.8
20260502163335 31 225 11.3 29.0 0.00 0.03 0.03 70 1009.9
20260502162351 31 261 11.3 27.4 0.00 0.03 0.03 72 1009.9
20260502161325 31 238 17.7 30.6 0.00 0.03 0.03 72 1010.0
20260502160400 31 230 17.7 27.4 0.00 0.03 0.03 72 1009.8
20260502152341 30 193 14.5 32.2 0.00 0.03 0.03 76 1010.0
20260502151337 30 184 17.7 37.0 0.00 0.03 0.03 75 1009.9
20260502150332 29 214 14.5 30.6 0.00 0.03 0.03 78 1009.8
20260502130326 25 212 4.8 16.1 0.00 0.03 0.00 93 1008.9
20260502123350 22 205 6.4 11.3 0.00 0.03 0.00 100 1009.0
20260502122324 21 162 3.2 9.7 0.00 0.03 0.00 100 1008.9
20260502121340 20 153 4.8 9.7 0.00 0.03 0.00 100 1008.9
20260502120335 20 131 4.8 9.7 0.00 0.03 0.00 100 1008.9
20260502115329 19 141 3.2 9.7 0.00 0.03 0.00 100 1008.8
20260502114326 18 136 3.2 9.7 0.00 0.03 0.00 100 1008.8
20260502113402 18 105 4.8 8.0 0.00 0.03 0.00 100 1008.8
20260502112337 18 121 3.2 4.8 0.00 0.03 0.00 100 1008.8
20260502111333 18 133 1.6 4.8 0.00 0.03 0.00 100 1008.9
20260502110326 18 110 3.2 6.4 0.00 0.03 0.00 100 1009.0
20260502105342 18 151 1.6 4.8 0.00 0.03 0.00 100 1008.9
20260502104357 18 127 0.0 3.2 0.00 0.03 0.00 100 1008.8
20260502103333 18 105 0.0 4.8 0.00 0.03 0.00 100 1008.9
20260502102330 18 124 0.0 1.6 0.00 0.03 0.00 100 1009.0
20260502101326 18 150 0.0 1.6 0.00 0.03 0.00 100 1009.0
20260502100342 18 125 0.0 4.8 0.00 0.03 0.00 100 1009.1
20260502091341 18 127 1.6 3.2 0.00 0.03 0.00 100 1009.4
20260502090336 18 138 0.0 1.6 0.00 0.03 0.00 100 1009.4
20260502071342 17 235 0.0 0.0 0.00 0.03 0.00 100 1009.3
20260502070337 17 235 0.0 0.0 0.00 0.03 0.00 100 1009.3
20260502065352 17 235 0.0 0.0 0.00 0.03 0.00 100 1009.2
20260502064338 17 235 0.0 0.0 0.00 0.03 0.00 100 1009.2
20260502063352 17 235 0.0 0.0 0.00 0.03 0.00 100 1009.5
20260502062344 17 235 0.0 0.0 0.00 0.03 0.00 100 1009.6
20260502061330 17 235 0.0 0.0 0.00 0.03 0.00 100 1009.6
20260502060340 17 235 0.0 0.0 0.00 0.03 0.00 100 1009.7
20260502055353 17 235 0.0 0.0 0.00 0.03 0.00 100 1009.7
20260502054338 18 235 0.0 0.0 0.00 0.03 0.00 100 1009.7